CW4086 Weather Reports


Display with metric or nautical units.
time (UTC)temp
F
wind
direction
speed
MPH
gust
MPH
rain 1hr
in
rain 24hr
in
rain mn
in
humidity
%
barometer
mb
20200328125603 39 98 0.0 0.0 0.00 0.00 0.00 69 1022.2
20200328125104 39 98 0.0 0.0 0.00 0.00 0.00 69 1022.2
20200328124604 39 98 0.0 0.0 0.00 0.00 0.00 69 1022.3
20200328124104 39 98 0.0 0.0 0.00 0.00 0.00 68 1022.3
20200328123603 39 98 0.0 0.0 0.00 0.00 0.00 68 1022.4
20200328123104 39 98 0.0 0.0 0.00 0.00 0.00 68 1022.5
20200328122606 39 98 0.0 0.0 0.00 0.00 0.00 68 1022.7
20200328122303 39 98 0.0 0.0 0.00 0.00 0.00 69 1022.8
20200328121605 39 98 0.0 0.0 0.00 0.00 0.00 69 1022.9
20200328121103 39 98 0.0 0.0 0.00 0.00 0.00 68 1022.9
20200328120604 39 98 0.0 0.0 0.00 0.00 0.00 68 1023.1
20200328120104 39 98 0.0 0.0 0.00 0.00 0.00 68 1022.9
20200328115604 40 98 0.0 0.0 0.00 0.00 0.00 68 1022.9
20200328115104 39 98 0.0 0.0 0.00 0.00 0.00 69 1022.8
20200328114603 39 98 0.0 0.0 0.00 0.00 0.00 69 1022.8
20200328114103 39 98 0.0 0.0 0.00 0.00 0.00 69 1022.8
20200328113603 40 98 0.0 0.0 0.00 0.00 0.00 69 1022.8
20200328113104 40 98 0.0 0.0 0.00 0.00 0.00 69 1022.8
20200328112604 40 98 0.0 0.0 0.00 0.00 0.00 69 1022.8
20200328112104 40 98 0.0 0.0 0.00 0.00 0.00 70 1022.8
20200328111604 39 98 0.0 0.0 0.00 0.00 0.00 70 1022.8
20200328111106 39 98 0.0 0.0 0.00 0.00 0.00 70 1022.8
20200328110604 40 98 0.0 0.0 0.00 0.00 0.00 70 1022.8
20200328110104 40 98 0.0 0.0 0.00 0.00 0.00 69 1022.8
20200328105604 40 98 0.0 0.0 0.00 0.00 0.00 70 1022.8
20200328105104 40 98 0.0 0.0 0.00 0.00 0.00 70 1022.8
20200328104604 40 98 0.0 0.0 0.00 0.00 0.00 70 1022.9
20200328103603 40 98 0.0 0.0 0.00 0.00 0.00 70 1023.0
20200328103104 40 98 0.0 0.0 0.00 0.00 0.00 70 1023.0
20200328102604 40 98 0.0 0.0 0.00 0.00 0.00 71 1022.9
20200328102104 40 98 0.0 0.0 0.00 0.00 0.00 71 1022.9
20200328101604 40 98 0.0 0.0 0.00 0.00 0.00 71 1022.9
20200328101105 40 98 0.0 0.0 0.00 0.00 0.00 71 1023.1
20200328100604 40 98 0.0 0.0 0.00 0.00 0.00 71 1023.1
20200328100104 40 98 0.0 0.0 0.00 0.00 0.00 71 1023.0
20200328095604 40 101 0.0 0.0 0.00 0.00 0.00 71 1023.0
20200328095104 40 100 0.0 0.0 0.00 0.00 0.00 71 1023.0
20200328094605 40 100 0.0 0.0 0.00 0.00 0.00 72 1023.0
20200328094104 40 100 0.0 0.0 0.00 0.00 0.00 71 1023.2
20200328093604 40 100 0.0 0.0 0.00 0.00 0.00 72 1023.3
20200328092603 40 101 0.0 0.0 0.00 0.00 0.00 71 1023.3
20200328092106 40 101 0.0 0.0 0.00 0.00 0.00 71 1023.3
20200328091107 40 101 0.0 0.0 0.00 0.00 0.00 71 1023.6
20200328090604 40 101 0.0 0.0 0.00 0.00 0.00 71 1023.7
20200328090105 40 101 0.0 0.0 0.00 0.00 0.00 71 1023.8
20200328085604 40 101 0.0 0.0 0.00 0.00 0.00 71 1023.9
20200328085104 40 101 0.0 0.0 0.00 0.00 0.00 71 1023.9
20200328084604 40 101 0.0 0.0 0.00 0.00 0.00 71 1023.9
20200328084105 40 101 0.0 0.0 0.00 0.00 0.00 71 1023.9
20200328083604 41 101 0.0 0.0 0.00 0.00 0.00 71 1023.9
20200328083105 41 101 0.0 0.0 0.00 0.00 0.00 70 1023.9
20200328082604 41 101 0.0 0.0 0.00 0.00 0.00 70 1023.9
20200328082104 41 101 0.0 0.0 0.00 0.00 0.00 70 1023.9
20200328081605 41 101 0.0 0.0 0.00 0.00 0.00 70 1023.9
20200328081106 41 101 0.0 0.0 0.00 0.00 0.00 70 1023.9
20200328080604 41 101 0.0 0.0 0.00 0.00 0.00 70 1023.9
20200328080104 41 101 0.0 0.0 0.00 0.00 0.00 69 1023.9
20200328075604 41 109 0.0 0.0 0.00 0.00 0.00 70 1023.9
20200328075104 41 109 0.0 0.0 0.00 0.00 0.00 70 1023.9
20200328074604 41 78 0.0 0.0 0.00 0.00 0.00 70 1023.9
20200328074104 41 78 0.0 0.0 0.00 0.00 0.00 70 1023.9
20200328073604 41 78 0.0 0.0 0.00 0.00 0.00 71 1023.9
20200328073104 41 76 0.0 0.0 0.00 0.00 0.00 71 1024.0
20200328072604 41 76 0.0 0.0 0.00 0.00 0.00 71 1024.1
20200328071604 41 74 0.0 0.0 0.00 0.00 0.00 72 1024.1
20200328071105 41 74 0.0 0.0 0.00 0.00 0.00 72 1024.0
20200328070604 41 75 0.0 0.0 0.00 0.00 0.00 72 1024.0
20200328070104 41 74 0.0 0.0 0.00 0.00 0.00 71 1024.0
20200328065604 41 74 0.0 0.0 0.00 0.00 0.00 71 1023.9
20200328065103 41 74 0.0 0.0 0.00 0.00 0.00 71 1023.9
20200328064604 41 74 0.0 0.0 0.00 0.00 0.00 71 1023.9
20200328064104 41 74 0.0 0.0 0.00 0.00 0.00 71 1023.9
20200328063604 41 75 0.0 0.0 0.00 0.00 0.00 71 1023.9
20200328063105 41 75 0.0 0.0 0.00 0.00 0.00 71 1023.9
20200328062604 41 75 0.0 0.0 0.00 0.00 0.00 71 1023.9
20200328062104 42 75 0.0 0.0 0.00 0.00 0.00 70 1023.9
20200328061604 42 75 0.0 0.0 0.00 0.00 0.00 70 1023.9
20200328061106 42 75 0.0 0.0 0.00 0.00 0.00 69 1023.9
20200328060604 42 75 0.0 0.0 0.00 0.00 0.00 69 1023.9
20200328060127 43 75 0.0 0.0 0.00 0.00 0.00 69 1023.9
20200328055603 43 75 0.0 0.0 0.00 0.00 0.00 69 1023.9
20200328055103 43 75 0.0 0.0 0.00 0.00 0.00 69 1023.9
20200328054604 43 75 0.0 0.0 0.00 0.00 0.00 69 1023.9
20200328054103 43 75 0.0 0.0 0.00 0.00 0.00 69 1023.9
20200328053604 43 75 0.0 0.0 0.00 0.00 0.00 69 1023.9
20200328053104 43 74 0.0 0.0 0.00 0.00 0.00 69 1023.9
20200328052604 43 74 0.0 0.0 0.00 0.00 0.00 68 1024.0
20200328052103 44 74 0.0 0.0 0.00 0.00 0.00 68 1024.1
20200328051604 44 74 0.0 0.0 0.00 0.00 0.00 67 1024.2
20200328051105 44 74 0.0 0.0 0.00 0.00 0.00 66 1024.1
20200328050604 45 74 0.0 0.0 0.00 0.00 0.00 66 1024.2
20200328050106 45 75 0.0 0.0 0.00 0.00 0.00 66 1024.2
20200328045604 45 75 0.0 0.0 0.00 0.00 0.00 66 1024.1
20200328045103 45 75 0.0 0.0 0.00 0.00 0.00 66 1024.0
20200328044604 45 75 0.0 0.0 0.00 0.00 0.00 67 1023.9
20200328044103 45 74 0.0 0.0 0.00 0.00 0.00 67 1023.9
20200328043604 44 74 0.0 0.0 0.00 0.00 0.00 67 1023.9
20200328043104 45 73 0.0 0.0 0.00 0.00 0.00 67 1023.9
20200328042604 45 72 0.0 0.0 0.00 0.00 0.00 67 1023.9
20200328042104 45 111 0.0 0.0 0.00 0.00 0.00 66 1023.8
20200328041603 45 111 0.0 0.0 0.00 0.00 0.00 65 1023.8
20200328041105 46 111 0.0 0.0 0.00 0.00 0.00 64 1023.7
20200328040603 46 111 0.0 0.0 0.00 0.00 0.00 63 1023.5
20200328040104 46 112 0.0 0.0 0.00 0.00 0.00 62 1023.4
20200328035604 46 109 0.0 0.0 0.00 0.00 0.00 61 1023.4
20200328035104 47 109 0.0 0.0 0.00 0.00 0.00 61 1023.3
20200328034603 47 143 0.0 0.0 0.00 0.00 0.00 60 1023.3
20200328034104 47 143 0.0 3.0 0.00 0.00 0.00 59 1023.3
20200328033604 47 142 0.0 3.0 0.00 0.00 0.00 59 1023.3
20200328033104 48 142 1.0 3.0 0.00 0.00 0.00 58 1023.2
20200328032604 48 142 2.0 3.0 0.00 0.00 0.00 59 1023.0
20200328032104 48 126 0.0 0.0 0.00 0.00 0.00 59 1022.9
20200328031603 48 121 0.0 0.0 0.00 0.00 0.00 59 1022.8
20200328031106 48 117 0.0 0.0 0.00 0.00 0.00 58 1022.8
20200328030604 48 135 0.0 3.0 0.00 0.00 0.00 58 1022.8
20200328030104 48 135 1.0 3.0 0.00 0.00 0.00 58 1022.7
20200328025604 48 136 2.0 3.0 0.00 0.00 0.00 58 1022.6
20200328025104 48 134 0.0 0.0 0.00 0.00 0.00 58 1022.5
20200328024604 49 134 0.0 3.0 0.00 0.00 0.00 58 1022.4
20200328024105 49 134 1.0 6.0 0.00 0.00 0.00 57 1022.3
20200328023605 49 187 1.0 6.0 0.00 0.00 0.00 57 1022.3
20200328023105 49 182 2.0 3.0 0.00 0.00 0.00 56 1022.2
20200328022604 50 215 0.0 3.0 0.00 0.00 0.00 57 1022.2
20200328022104 50 209 0.0 0.0 0.00 0.00 0.00 55 1022.2
20200328021604 51 209 0.0 0.0 0.00 0.00 0.00 56 1022.2
20200328021107 51 209 0.0 5.0 0.00 0.00 0.00 55 1022.2
20200328020603 51 209 1.0 5.0 0.00 0.00 0.00 54 1022.1
20200328020104 51 107 0.0 0.0 0.00 0.00 0.00 54 1022.0
20200328015604 52 144 0.0 9.0 0.00 0.00 0.00 54 1022.0
20200328015104 52 140 0.0 9.0 0.00 0.00 0.00 54 1021.8
20200328014604 52 153 2.0 9.0 0.00 0.00 0.00 53 1021.7
20200328014104 53 200 2.0 6.0 0.00 0.00 0.00 53 1021.6
20200328013604 53 172 2.0 6.0 0.00 0.00 0.00 52 1021.6
20200328013104 53 170 2.0 8.0 0.00 0.00 0.00 53 1021.6
20200328012603 53 213 3.0 10.0 0.00 0.00 0.00 52 1021.5
20200328012104 54 222 3.0 10.0 0.00 0.00 0.00 52 1021.4
20200328011603 54 198 4.0 10.0 0.00 0.00 0.00 51 1021.2
20200328011107 54 180 3.0 10.0 0.00 0.00 0.00 47 1021.1
20200328010603 55 179 5.0 10.0 0.00 0.00 0.00 49 1021.0
20200328010104 56 208 3.0 14.0 0.00 0.00 0.00 49 1021.0
20200328005604 56 228 5.0 14.0 0.00 0.00 0.00 48 1021.0
20200328005103 56 177 5.0 12.0 0.00 0.00 0.00 48 1021.0
20200328004604 56 195 5.0 10.0 0.00 0.00 0.00 47 1020.9
20200328004104 57 222 6.0 12.0 0.00 0.00 0.00 46 1020.8
20200328003603 57 229 6.0 12.0 0.00 0.00 0.00 46 1020.7
20200328003104 57 231 2.0 12.0 0.00 0.00 0.00 47 1020.5
20200328002604 57 227 6.0 12.0 0.00 0.00 0.00 46 1020.5
20200328002104 57 231 4.0 12.0 0.00 0.00 0.00 46 1020.5
20200328001604 58 210 6.0 12.0 0.00 0.00 0.00 45 1020.5
20200328001105 58 236 6.0 12.0 0.00 0.00 0.00 44 1020.5
20200328000604 58 235 5.0 12.0 0.00 0.00 0.00 43 1020.5
20200328000104 58 226 3.0 13.0 0.00 0.00 0.00 43 1020.4
20200327235604 59 219 4.0 13.0 0.00 0.00 0.00 39 1020.3
20200327235104 59 247 5.0 14.0 0.00 0.00 0.00 38 1020.1
20200327234604 60 244 6.0 14.0 0.00 0.00 0.00 36 1020.3
20200327234104 60 247 3.0 12.0 0.00 0.00 0.00 36 1020.2
20200327233604 60 205 3.0 12.0 0.00 0.00 0.00 34 1020.1
20200327233105 61 248 5.0 12.0 0.00 0.00 0.00 35 1020.0
20200327232604 60 240 4.0 12.0 0.00 0.00 0.00 34 1020.1
20200327232104 60 257 4.0 12.0 0.00 0.00 0.00 35 1020.0
20200327231604 59 237 7.0 14.0 0.00 0.00 0.00 32 1020.0
20200327231106 60 251 6.0 14.0 0.00 0.00 0.00 33 1020.0
20200327230605 60 257 5.0 14.0 0.00 0.00 0.00 32 1020.0
20200327230105 60 223 6.0 12.0 0.00 0.00 0.00 32 1020.0
20200327225604 59 248 6.0 13.0 0.00 0.00 0.00 31 1020.0
20200327225105 60 276 6.0 13.0 0.00 0.00 0.00 31 1020.0
20200327224604 60 215 5.0 12.0 0.00 0.00 0.00 32 1020.0
20200327224104 59 250 3.0 12.0 0.00 0.00 0.00 33 1020.0
20200327223604 59 246 5.0 12.0 0.00 0.00 0.00 32 1020.0
20200327223104 60 212 4.0 12.0 0.00 0.00 0.00 32 1020.0
20200327222603 60 275 4.0 10.0 0.00 0.00 0.00 31 1020.0
20200327222104 60 223 5.0 10.0 0.00 0.00 0.00 35 1020.0
20200327221604 60 237 3.0 12.0 0.00 0.00 0.00 34 1020.0
20200327221106 60 215 6.0 12.0 0.00 0.00 0.00 34 1020.0
20200327220604 60 276 4.0 10.0 0.00 0.00 0.00 34 1020.1
20200327220104 60 228 3.0 9.0 0.00 0.00 0.00 36 1020.1
20200327215604 60 249 5.0 12.0 0.00 0.00 0.00 34 1020.1
20200327215104 60 225 5.0 12.0 0.00 0.00 0.00 34 1020.2
20200327214603 59 245 5.0 9.0 0.00 0.00 0.00 36 1020.1
20200327214104 59 253 4.0 10.0 0.00 0.00 0.00 34 1020.2
20200327213604 59 257 5.0 10.0 0.00 0.00 0.00 36 1020.2
20200327213104 58 263 6.0 10.0 0.00 0.00 0.00 37 1020.3
20200327212604 59 282 2.0 9.0 0.00 0.00 0.00 36 1020.4
20200327212104 59 267 4.0 9.0 0.00 0.00 0.00 36 1020.5
20200327211604 59 262 4.0 13.0 0.00 0.00 0.00 37 1020.5
20200327211105 59 262 7.0 13.0 0.00 0.00 0.00 36 1020.6
20200327210604 59 223 3.0 9.0 0.00 0.00 0.00 38 1020.6
20200327210105 59 251 2.0 9.0 0.00 0.00 0.00 38 1020.6
20200327205604 58 227 5.0 9.0 0.00 0.00 0.00 39 1020.7
20200327205104 58 227 2.0 8.0 0.00 0.00 0.00 39 1020.7
20200327204604 57 177 3.0 8.0 0.00 0.00 0.00 40 1020.7
20200327204104 57 213 3.0 8.0 0.00 0.00 0.00 42 1020.7
20200327203604 56 237 2.0 10.0 0.00 0.00 0.00 45 1020.7
20200327203103 55 245 3.0 10.0 0.00 0.00 0.00 45 1020.7
20200327202604 56 271 2.0 8.0 0.00 0.00 0.00 41 1020.7
20200327202104 56 210 2.0 9.0 0.00 0.00 0.00 43 1020.8
20200327201604 57 255 2.0 9.0 0.00 0.00 0.00 44 1020.8
20200327201105 57 268 5.0 9.0 0.00 0.00 0.00 41 1020.9
20200327195604 56 244 2.0 9.0 0.00 0.00 0.00 44 1021.0
20200327195104 56 248 1.0 9.0 0.00 0.00 0.00 43 1021.0
20200327194604 55 276 2.0 7.0 0.00 0.00 0.00 46 1021.0
20200327194104 55 221 0.0 10.0 0.00 0.00 0.00 46 1021.1
20200327193603 54 263 4.0 10.0 0.00 0.00 0.00 44 1021.1
20200327193104 54 113 0.0 6.0 0.00 0.00 0.00 44 1021.2
20200327192604 54 274 2.0 7.0 0.00 0.00 0.00 44 1021.2
20200327192104 54 262 3.0 7.0 0.00 0.00 0.00 46 1021.2
20200327191604 54 277 3.0 7.0 0.00 0.00 0.00 46 1021.2
20200327191105 54 234 0.0 5.0 0.00 0.00 0.00 48 1021.2
20200327190604 53 230 1.0 5.0 0.00 0.00 0.00 50 1021.2
20200327190104 53 225 2.0 5.0 0.00 0.00 0.00 50 1021.2
20200327185605 53 164 1.0 6.0 0.00 0.00 0.00 48 1021.2
20200327185104 53 232 3.0 6.0 0.00 0.00 0.00 48 1021.2
20200327184604 53 223 2.0 6.0 0.00 0.00 0.00 48 1021.2
20200327184104 53 258 3.0 8.0 0.00 0.00 0.00 50 1021.2
20200327183604 53 246 2.0 8.0 0.00 0.00 0.00 48 1021.2
20200327183104 52 33 2.0 5.0 0.00 0.00 0.00 47 1021.2
20200327182604 51 284 2.0 7.0 0.00 0.00 0.00 49 1021.2
20200327182104 51 260 4.0 7.0 0.00 0.00 0.00 47 1021.2
20200327181604 51 231 2.0 7.0 0.00 0.00 0.00 52 1021.2
20200327181105 50 242 1.0 5.0 0.00 0.00 0.00 53 1021.2
20200327180603 50 242 2.0 5.0 0.00 0.00 0.00 53 1021.2
20200327180104 50 257 1.0 3.0 0.00 0.00 0.00 53 1021.2
20200327175604 49 261 0.0 5.0 0.00 0.00 0.00 51 1021.2
20200327175104 49 261 2.0 6.0 0.00 0.00 0.00 54 1021.1
20200327174604 49 259 2.0 9.0 0.00 0.00 0.00 53 1021.2
20200327174104 49 221 3.0 9.0 0.00 0.00 0.00 52 1021.1
20200327173604 50 264 5.0 8.0 0.00 0.00 0.00 51 1021.0
20200327173104 50 261 3.0 6.0 0.00 0.00 0.00 49 1021.0
20200327172603 50 306 0.0 7.0 0.00 0.00 0.00 51 1020.8
20200327172103 49 251 2.0 8.0 0.00 0.00 0.00 51 1020.8
20200327171604 48 291 1.0 8.0 0.00 0.00 0.00 53 1020.7
20200327171106 49 215 3.0 6.0 0.00 0.00 0.00 50 1020.7
20200327170603 49 215 1.0 5.0 0.00 0.00 0.00 53 1020.6
20200327170104 48 167 0.0 0.0 0.00 0.00 0.00 53 1020.6
20200327165603 48 165 0.0 0.0 0.00 0.00 0.00 55 1020.5
20200327165103 48 166 0.0 0.0 0.00 0.00 0.00 53 1020.4
20200327164604 48 162 0.0 0.0 0.00 0.00 0.00 55 1020.3
20200327164103 48 151 0.0 0.0 0.00 0.00 0.00 54 1020.1
20200327163604 48 151 0.0 0.0 0.00 0.00 0.00 54 1020.1
20200327163104 48 150 0.0 0.0 0.00 0.00 0.00 60 1020.1
20200327162604 48 150 0.0 0.0 0.00 0.00 0.00 63 1019.9
20200327162103 47 150 0.0 0.0 0.00 0.00 0.00 68 1020.0
20200327161604 46 149 0.0 0.0 0.00 0.00 0.00 69 1020.0
20200327161106 45 149 0.0 0.0 0.00 0.00 0.00 72 1020.1
20200327160604 44 149 0.0 0.0 0.00 0.00 0.00 72 1020.1
20200327160104 44 150 0.0 0.0 0.00 0.00 0.00 74 1020.1
20200327155603 43 150 0.0 0.0 0.00 0.00 0.00 74 1020.1
20200327155105 43 150 0.0 0.0 0.00 0.00 0.00 75 1020.1
20200327154604 42 150 0.0 0.0 0.00 0.00 0.00 75 1019.9
20200327154104 42 150 0.0 0.0 0.00 0.00 0.00 75 1019.8
20200327153604 42 150 0.0 0.0 0.00 0.00 0.00 75 1019.8
20200327153104 42 149 0.0 0.0 0.00 0.00 0.00 75 1019.7
20200327152604 42 148 0.0 0.0 0.00 0.00 0.00 76 1019.7
20200327152104 41 123 0.0 0.0 0.00 0.00 0.00 77 1019.7
20200327151605 41 94 0.0 0.0 0.00 0.00 0.00 77 1019.6
20200327151104 41 93 0.0 0.0 0.00 0.00 0.00 77 1019.4
20200327150606 40 93 0.0 0.0 0.00 0.00 0.00 78 1019.2
20200327150105 40 93 0.0 0.0 0.00 0.00 0.00 78 1019.2
20200327145604 40 93 0.0 0.0 0.00 0.00 0.00 78 1019.1
20200327145104 40 93 0.0 0.0 0.00 0.00 0.00 78 1019.0
20200327144604 40 94 0.0 0.0 0.00 0.00 0.00 78 1018.9
20200327144104 39 94 0.0 0.0 0.00 0.00 0.00 79 1018.8
20200327143604 39 93 0.0 0.0 0.00 0.00 0.00 79 1018.6
20200327143104 39 93 0.0 0.0 0.00 0.00 0.00 80 1018.5
20200327142605 38 93 0.0 0.0 0.00 0.00 0.00 79 1018.5
20200327142104 38 93 0.0 0.0 0.00 0.00 0.00 80 1018.4
20200327141604 38 93 0.0 0.0 0.00 0.00 0.00 80 1018.3
20200327141104 38 93 0.0 0.0 0.00 0.00 0.00 79 1018.1
20200327140606 38 93 0.0 0.0 0.00 0.00 0.00 79 1018.1
20200327140104 38 93 0.0 0.0 0.00 0.00 0.00 79 1018.1
20200327135604 39 93 0.0 0.0 0.00 0.00 0.00 79 1018.0
20200327135104 39 93 0.0 0.0 0.00 0.00 0.00 79 1018.1
20200327134604 39 93 0.0 0.0 0.00 0.00 0.00 79 1018.1
20200327134104 39 93 0.0 0.0 0.00 0.00 0.00 79 1018.1
20200327133605 39 93 0.0 0.0 0.00 0.00 0.00 79 1018.0
20200327133104 39 93 0.0 0.0 0.00 0.00 0.00 79 1018.0
20200327132604 39 93 0.0 0.0 0.00 0.00 0.00 79 1018.0
20200327132104 39 93 0.0 0.0 0.00 0.00 0.00 79 1018.0
20200327131604 39 93 0.0 0.0 0.00 0.00 0.00 79 1018.0
20200327131104 39 93 0.0 0.0 0.00 0.00 0.00 79 1017.9
20200327130607 39 93 0.0 0.0 0.00 0.00 0.00 79 1017.9
20200327130104 39 93 0.0 0.0 0.00 0.00 0.00 79 1017.9